Location: Cudham
(51.3000°N, 0.0667°E)
Time: 17:55:26
(UTC+00:00)

USA 229 DEB - Pass Details

Date: 25 April 2026
Orbit: 844 x 1364 km, 63.4° (Epoch: 10 January)

Event Time Altitude Azimuth Distance (km) Brightness Sun altitude
Rises 22:41:50 0° 314° (NW) 3,926 7.7 -23.2°
Reaches altitude 10° 22:44:23 10° 315° (NW) 3,037 6.9 -23.3°
Maximum altitude 22:51:47 89° 230° (SW) 1,250 3.9 -23.7°
Enters shadow 22:55:12 39° 139° (SE) 1,826 4.4 -23.8°
